Regional Weather Roundup
Issued by NWS

Home | Current Version | Previous Version | Text Only | Print | Product List | Glossary Off
Versions: 1 2 3 4 5 6 7 8 9 10 11 12 13 14 15 16 17 18 19 20 21 22 23 24 25 26 27 28 29 30 31 32 33 34 35 36 37 38 39 40 41 42 43 44 45 46 47 48 49 50

000
ASUS45 KBOI 261110
RWRID
WEATHER ROUNDUP FOR IDAHO
NATIONAL WEATHER SERVICE BOISE ID
400 AM MST THU FEB 26 2015

NOTE: "FAIR" INDICATES FEW OR NO CLOUDS BELOW 12000 FEET
WITH NO SIGNIFICANT WEATHER AND/OR OBSTRUCTIONS TO VISIBILITY

IDZ012-014-261200-
SOUTHWEST IDAHO


CITY           SKY/WX    TMP DP  RH WIND       PRES   REMARKS
BOISE          CLOUDY    40  32  73 NW7       30.06F
CALDWELL       CLOUDY    43  28  56 W12       30.09S
MOUNTAIN HOME  DRIZZLE   40  32  74 NW13      30.06F WCI  32
$$

IDZ016-017-261200-
SOUTHCENTRAL IDAHO


CITY           SKY/WX    TMP DP  RH WIND       PRES   REMARKS
BURLEY         CLOUDY    32  21  64 CALM      29.98F
JEROME         CLOUDY    31  20  63 N5        30.01F WCI  26
TWIN FALLS     CLOUDY    37  22  54 W13       30.01F WCI  29
$$

IDZ019>023-261200-
SOUTHEAST IDAHO


CITY           SKY/WX    TMP DP  RH WIND       PRES   REMARKS
IDAHO FALLS    CLOUDY    26  15  63 NE6       30.02F WCI  19
POCATELLO      MOCLDY    27  18  69 NE7       30.00F WCI  19
REXBURG        MOCLDY    21  12  68 NE9       30.03F WCI  11
$$

IDZ006-010-011-018-031-032-261200-
CENTRAL IDAHO MOUNTAINS


CITY           SKY/WX    TMP DP  RH WIND       PRES   REMARKS
MCCALL         LGT SNOW  29  27  92 CALM      30.01F FOG
HAILEY         CLOUDY    32  19  59 NW7       30.00F WCI  26
STANLEY          N/A     23  18  81 CALM      30.00F
SALMON         CLOUDY    23  18  80 CALM      30.05S
CHALLIS        CLOUDY    27  19  72 CALM      30.00F
$$

IDZ002-004-006-007-026-261200-
NORTHERN IDAHO


CITY           SKY/WX    TMP DP  RH WIND       PRES   REMARKS
LEWISTON       LGT RAIN  40  38  93 E3        30.15F
LOWELL           N/A     34  29  82 CALM      30.17F
COEUR D`ALENE  PTCLDY    27  21  80 E7        30.11S WCI  19
MULLAN PASS    CLOUDY    23  19  85 CALM      30.01F
$$



USA.gov is the U.S. government's official web portal to all federal, state and local government web resources and services.